Change the Weather History Date:

Thursday, September 26, 2013

  Actual Average Record
Temperature  
Mean Temperature 42 °F 50 °F  
Max Temperature 50 °F 64 °F 89 °F (1963)
Min Temperature 34 °F 37 °F 4 °F (1908)
Degree Days  
Heating Degree Days 23 15  
Month to date heating degree days 150 282  
Since 1 July heating degree days 222 476  
Cooling Degree Days 0 0  
Month to date cooling degree days 31 6  
Year to date cooling degree days 226 159  
Moisture  
Dew Point 31 °F    
Average Humidity 69    
Maximum Humidity 82    
Minimum Humidity 56    
Precipitation  
Precipitation 0.00 in 0.04 in 0.45 in (1929)
Month to date precipitation 2.29 1.10  
Year to date precipitation 13.31 9.76  
Snow  
Snow 0.00 in - - ()
Snow Depth 0.00 in    
Sea Level Pressure  
Sea Level Pressure 30.01 in    
Wind  
Wind Speed 17 mph (NW)    
Max Wind Speed 24 mph    
Max Gust Speed 29 mph    
Visibility 10 miles    
Events      
T = Trace of Precipitation, MM = Missing Value Source: NWS Daily Summary

Daily Weather History Graph

Daily Weather History Graph

Search for Another Location

Airport or City:

Trip Planner

Search our weather history database for the weather conditions in past years. The results will help you decide how hot, cold, wet, or windy it might be!

Date:

Astronomy

Sep. 26, 2013 Rise Set
Actual Time 7:22 AM MDT 7:18 PM MDT
Civil Twilight 6:50 AM MDT 7:49 PM MDT
Nautical Twilight 6:14 AM MDT 8:26 PM MDT
Astronomical Twilight 5:36 AM MDT 9:03 PM MDT
Moon 11:55 PM MDT (9/26) 2:42 PM MDT (9/26)
Length of Visible Light 12h 58m
Length of Day
11h 55m
Waning Gibbous, 54% of the Moon is Illuminated
Sep 26
Waning Gibbous
Sep 26
Last Quarter
Oct 4
New
Oct 11
First Quarter
Oct 18
Full

Hourly Weather History & Observations

Time (MDT) Temp. Windchill Dew Point Humidity Pressure Visibility Wind Dir Wind Speed Gust Speed Precip Events Conditions
12:56 AM 37.0 °F 28.1 °F 32.0 °F 82% 29.94 in 10.0 mi North 15.0 mph - N/A   Clear
1:56 AM 37.0 °F 27.7 °F 30.9 °F 79% 29.95 in 10.0 mi North 16.1 mph - N/A   Clear
2:56 AM 37.0 °F 27.7 °F 30.9 °F 79% 29.95 in 10.0 mi NNW 16.1 mph - N/A   Mostly Cloudy
3:56 AM 36.0 °F 26.3 °F 30.0 °F 79% 29.97 in 10.0 mi NNW 16.1 mph - N/A   Clear
4:56 AM 35.1 °F 25.2 °F 30.0 °F 82% 29.99 in 10.0 mi NNW 16.1 mph - N/A   Clear
5:56 AM 35.1 °F 25.5 °F 30.0 °F 82% 30.00 in 10.0 mi NNW 15.0 mph - N/A   Scattered Clouds
6:56 AM 34.0 °F 23.8 °F 28.9 °F 82% 30.01 in 10.0 mi NW 16.1 mph - N/A   Partly Cloudy
7:56 AM 35.1 °F 25.5 °F 30.0 °F 82% 30.02 in 10.0 mi NNW 15.0 mph - N/A   Scattered Clouds
8:56 AM 37.0 °F 27.4 °F 30.9 °F 79% 30.03 in 10.0 mi NNW 17.3 mph - N/A   Mostly Cloudy
9:56 AM 39.9 °F 30.2 °F 33.1 °F 77% 30.03 in 10.0 mi NNW 20.7 mph 27.6 mph N/A   Partly Cloudy
10:56 AM 42.1 °F 33.6 °F 34.0 °F 73% 30.03 in 10.0 mi NNW 18.4 mph 26.5 mph N/A   Scattered Clouds
11:56 AM 46.0 °F 38.8 °F 35.1 °F 66% 30.03 in 10.0 mi NNW 18.4 mph 24.2 mph N/A   Clear
12:56 PM 46.9 °F - 34.0 °F 61% 30.03 in 10.0 mi NNW 16.1 mph 24.2 mph N/A   Scattered Clouds
1:56 PM 48.0 °F - 33.1 °F 56% 30.02 in 10.0 mi NNW 17.3 mph 23.0 mph N/A   Scattered Clouds
2:56 PM 46.9 °F - 32.0 °F 56% 30.03 in 10.0 mi NNW 21.9 mph 27.6 mph N/A   Mostly Cloudy
3:56 PM 48.9 °F - 32.0 °F 52% 30.02 in 10.0 mi NNW 11.5 mph - N/A   Overcast
4:56 PM 48.0 °F - 30.9 °F 52% 30.02 in 10.0 mi NW 10.4 mph - N/A   Overcast
5:56 PM 48.9 °F - 28.9 °F 46% 30.02 in 10.0 mi NW 6.9 mph - N/A   Scattered Clouds
6:56 PM 44.1 °F 38.6 °F 32.0 °F 63% 30.04 in 10.0 mi NW 10.4 mph - N/A   Scattered Clouds
7:56 PM 39.9 °F 34.5 °F 33.1 °F 77% 30.06 in 10.0 mi West 8.1 mph - N/A   Mostly Cloudy
8:56 PM 39.0 °F 34.0 °F 30.9 °F 73% 30.06 in 10.0 mi WSW 6.9 mph - N/A   Clear
9:56 PM 37.0 °F 31.0 °F 30.9 °F 79% 30.05 in 10.0 mi West 8.1 mph - N/A   Clear
10:56 PM 34.0 °F 28.0 °F 28.9 °F 82% 30.03 in 10.0 mi WNW 6.9 mph - N/A   Clear
11:56 PM 30.9 °F 25.2 °F 28.0 °F 89% 30.01 in 10.0 mi WSW 5.8 mph - N/A   Clear